Regional Weather Roundup
Issued by NWS

Home | Current Version | Previous Version | Text Only | Print | Product List | Glossary On
Versions: 1 2 3 4 5 6 7 8 9 10 11 12 13 14 15 16 17 18 19 20 21 22 23 24 25 26 27 28 29 30 31 32 33 34 35 36 37 38 39 40 41 42 43 44 45 46 47 48 49 50
000
ASUS43 KLOT 301510
RWRIL

ILLINOIS REGIONAL WEATHER ROUNDUP
NATIONAL WEATHER SERVICE CHICAGO/ROMEOVILLE IL
1000 AM CDT WED JUL 30 2014

NOTE: "FAIR" INDICATES FEW OR NO CLOUDS BELOW 12,000 FEET WITH NO
SIGNIFICANT WEATHER AND/OR OBSTRUCTIONS TO VISIBILITY.

* THESE STATIONS ARE NOT UNDER NWS QUALITY CONTROL. THEY ALSO MAY NOT
  REPORT WEATHER SUCH AS PRECIPITATION OR FOG.

ILZ001-002-007-009-015-016-024-301600-
NORTHWEST ILLINOIS

CITY           SKY/WX    TMP DP  RH WIND       PRES   REMARKS
MOLINE         MOSUNNY   71  58  63 CALM      30.08S
STERLING*      SUNNY     73  59  60 N9        30.07S
SAVANNA*       SUNNY     73  56  56 N6        30.07S
$$

ILZ003-004-008-010-011-017-018-301600-
NORTH CENTRAL ILLINOIS

CITY           SKY/WX    TMP DP  RH WIND       PRES   REMARKS
ROCKFORD       SUNNY     71  57  61 N6        30.07S
FREEPORT*      SUNNY     68  61  80 NW5       30.10R
ROCHELLE*      SUNNY     69  58  69 N5        30.07S
DE KALB*       SUNNY     67  58  73 NW8       30.07R
PERU*          SUNNY     72  59  62 NW8       30.07S
$$

ILZ005-006-012>014-019>023-301600-
NORTHEAST ILLINOIS

CITY           SKY/WX    TMP DP  RH WIND       PRES   REMARKS
CHICAGO-OHARE  MOSUNNY   72  54  53 VRB5      30.04R
CHICAGO-MIDWAY MOSUNNY   72  57  59 W8        30.04S
AURORA         SUNNY     70  59  68 NW7       30.06R
LANSING*       SUNNY     72  54  54 NW5       30.05S
JOLIET*        SUNNY    N/A N/A N/A NW6       30.06S
WAUKEGAN       MOSUNNY   68  58  70 VRB5      30.04R
DUPAGE AIRPORT SUNNY     71  57  61 NW6       30.05R
KANKAKEE*      SUNNY     72  60  66 W6        30.06S
WHEELING       SUNNY     72  58  61 N6        30.06R
MORRIS*        SUNNY     71  62  71 NW7       30.05R
ROMEOVILLE*    SUNNY     70  56  62 NW3       30.05S
NORTHERLY ISL    N/A     68  59  73 NE5         N/A
$$

LMZ740>746-301600-
SOUTHERN LAKE MICHIGAN

STATION/POSITION SKY/WX   TEMP    WIND        PRES    VSBY  WAVE
                          AIR SEA DIR/SP/G                  HT/PER
                          (F)     (DEG/KT/KT) (MB)    (MI)  (FT/S)
SOUTHERN BUOY              60 60  310/  6/  8 1017.2R         1
WAUKEGAN HARBOR            65      70/  3/  5   N/A
HARRISON CRIB              65      10/  7/  8   N/A
BURNHAM HARBOR             69      50/  6/  7   N/A
CALUMET HARBOR             71      60/  2/  7 1016.1S
MICHIGAN CITY              66     270/  7/  9   N/A
MICHIGAN CITY 6N           65 68  310/  6/  8   N/A           1/ 3
ST. JOSEPH                 64 68  300/  6/ 10   N/A           1/ 3
$$

ILZ025>027-034>036-040-047-049-050-058-095>099-301600-
WEST-CENTRAL ILLINOIS

CITY           SKY/WX    TMP DP  RH WIND       PRES   REMARKS
QUINCY         SUNNY     73  58  59 W5        30.11R
GALESBURG*     SUNNY     73  64  71 NW6       30.09S
MACOMB*        SUNNY     72  62  72 NW8       30.11S
JACKSONVILLE*  SUNNY     74  63  68 W6        30.11S
PITTSFIELD*    PTSUNNY   75  60  59 W5        30.12S
$$

ILZ028>032-037-038-041>044-048-051>054-059>061-301600-
CENTRAL ILLINOIS

CITY           SKY/WX    TMP DP  RH WIND       PRES   REMARKS
PONTIAC        SUNNY     73  63  68 NW5       30.06S
DECATUR        SUNNY     74  60  61 W7        30.09S
PEORIA         SUNNY     75  61  61 VRB3      30.08S
LACON*         SUNNY     72  58  61 CALM      30.06S
LINCOLN*       SUNNY     75  60  58 NW5       30.06F
SPRINGFIELD    SUNNY     75  62  64 VRB6      30.10S
TAYLORVILLE    SUNNY     72  61  68 W5        30.10S
$$

ILZ033-039-045-046-055>057-062-063-301600-
EAST-CENTRAL ILLINOIS

CITY           SKY/WX    TMP DP  RH WIND       PRES   REMARKS
CHAMPAIGN      SUNNY     71  63  75 W8        30.08F
DANVILLE*      PTSUNNY   69  62  79 SW6       30.05S
RANTOUL*       SUNNY     73  62  69 W7        30.08S
MATTOON        SUNNY     74  61  63 NW9       30.08S
PARIS*         SUNNY     73  64  75 W5        30.09S
$$

ILZ079-100>102-301600-
SOUTHWEST ILLINOIS

CITY           SKY/WX    TMP DP  RH WIND       PRES   REMARKS
ALTON          MOSUNNY   75  57  53 CALM      30.10F
BELLEVILLE     SUNNY     77  59  53 VRB2      30.09F
CAHOKIA*       MOSUNNY   77  60  55 SW5       30.10S
SPARTA*        MOSUNNY   72  61  68 SW6       30.11F
$$

ILZ064>066-069>071-074>076-080>082-084>086-088>090-092>094-301600-
SOUTH-CENTRAL ILLINOIS

CITY           SKY/WX    TMP DP  RH WIND       PRES   REMARKS
CARBONDALE     CLOUDY    74  57  55 W6        30.11S
CAIRO*         CLOUDY    73  62  68 CALM      30.13R
EFFINGHAM*     SUNNY     74  56  53 W7        30.10S
MARION         PTSUNNY   75  59  57 SW12      30.12S
MT. VERNON     SUNNY     73  61  64 CALM      30.12R
CENTRALIA*     SUNNY     86  61  43 CALM      30.10F HX  86
SALEM*         SUNNY    N/A N/A N/A W3        30.11S
METROPOLIS*    PTSUNNY   74  55  52 W3        30.12R
$$

ILZ067-068-072-073-078-083-087-091-301600-
SOUTHEAST ILLINOIS

CITY           SKY/WX    TMP DP  RH WIND       PRES   REMARKS
LAWRENCEVILLE  SUNNY     73  60  63 W8        30.10S
FLORA*         SUNNY     74  57  55 W6        30.10F
FAIRFIELD*     SUNNY     73  64  73 SW3       30.11R
HARRISBURG*    MOSUNNY   74  61  63 W5        30.12S
ROBINSON*      SUNNY     74  63  68 W6        30.11S
CARMI*         SUNNY     75  64  69 CALM      30.10S
$$

ABBREVIATIONS USED IN REMARKS
   TC - TEMPERATURE IN CELSIUS
  WCI - WIND CHILL INDEX
   HX - HEAT INDEX
  VSB - VISIBILITY
$$



USA.gov is the U.S. government's official web portal to all federal, state and local government web resources and services.